Doha, Qatar

7:56 PM +03 on December 12, 2017 (GMT +0300)
Doha International

Weather History for OTBD - September, 2012

Change the Weather History Date:

Friday, September 7, 2012

  Actual Average Record
Temperature  
Mean Temperature 98 °F -  
Max Temperature 109 °F 100 °F 109 °F (2001)
Min Temperature 88 °F 79 °F 84 °F (1996)
Cooling Degree Days 34    
Growing Degree Days 48 (Base 50)    
Moisture  
Dew Point 76 °F    
Average Humidity 55    
Maximum Humidity 79    
Minimum Humidity 20    
Precipitation  
Precipitation 0.00 in 0.00 in - ()
Sea Level Pressure  
Sea Level Pressure 29.60 in    
Wind  
Wind Speed 5 mph ()    
Max Wind Speed 17 mph    
Max Gust Speed -    
Visibility 5.8 miles    
Events      
Averages and records for this station are not official NWS values.
T = Trace of Precipitation, MM = Missing Value Source: Averaged Metar Reports

Daily Weather History Graph

Daily Weather History Graph

Search for Another Location

Airport or City:

Trip Planner

Search our weather history database for the weather conditions in past years. The results will help you decide how hot, cold, wet, or windy it might be!

Date:

Astronomy

Sep. 07, 2012 Rise Set
Actual Time 5:16 AM +03 5:46 PM +03
Civil Twilight 4:53 AM +03 6:09 PM +03
Nautical Twilight 4:26 AM +03 6:36 PM +03
Astronomical Twilight 3:59 AM +03 7:03 PM +03
Moon 10:06 PM +03 (9/7) 11:05 AM +03 (9/7)
Length of Visible Light 13h 15m
Length of Day
12h 29m
Waning Gibbous, 61% of the Moon is Illuminated
Sep 7
Waning Gibbous
Sep 8
Last Quarter
Sep 16
New
Sep 22
First Quarter
Sep 30
Full

Hourly Weather History & Observations

Time (+03) Temp. Heat Index Dew Point Humidity Pressure Visibility Wind Dir Wind Speed Gust Speed Precip Events Conditions
12:00 AM 93.2 °F 105.0 °F 75.2 °F 56% 29.62 in - SSE 3.5 mph - N/A   Clear
12:30 AM 91.4 °F 111.0 °F 80.6 °F 71% 29.59 in - Variable 2.3 mph - N/A   Clear
1:00 AM 91.4 °F 111.0 °F 80.6 °F 71% 29.59 in - Variable 2.3 mph - N/A   Clear
1:30 AM 91.4 °F 111.0 °F 80.6 °F 71% 29.59 in - SW 3.5 mph - N/A   Clear
2:00 AM 89.6 °F 108.2 °F 80.6 °F 75% 29.59 in - SW 4.6 mph - N/A   Clear
2:30 AM 89.6 °F 108.2 °F 80.6 °F 75% 29.59 in - SW 3.5 mph - N/A   Clear
3:00 AM 89 °F - 82 °F 74% 29.61 in 6 mi SW 3.5 mph - -  
3:00 AM 89.6 °F 111.1 °F 82.4 °F 79% 29.59 in - SW 3.5 mph - N/A   Clear
3:30 AM 89.6 °F 108.2 °F 80.6 °F 75% 29.59 in - Variable 2.3 mph - N/A   Clear
4:00 AM 89.6 °F 102.2 °F 77.0 °F 66% 29.59 in - Variable 2.3 mph - N/A   Clear
4:30 AM 89.6 °F 102.2 °F 77.0 °F 66% 29.59 in - SW 3.5 mph - N/A   Clear
5:00 AM 89.6 °F 104.7 °F 78.8 °F 70% 29.62 in - SW 4.6 mph - N/A   Clear
5:30 AM 89.6 °F 102.2 °F 77.0 °F 66% 29.62 in 5.6 mi WSW 4.6 mph - N/A   Unknown
6:00 AM 89.6 °F 102.2 °F 77.0 °F 66% 29.62 in - WSW 4.6 mph - N/A   Clear
6:30 AM 100.4 °F 111.9 °F 73.4 °F 42% 29.62 in - SW 4.6 mph - N/A   Clear
7:30 AM 100.4 °F 107.8 °F 69.8 °F 37% 29.65 in 5.6 mi SW 4.6 mph - N/A   Unknown
8:00 AM 98.6 °F 102.8 °F 66.2 °F 35% 29.65 in 5.6 mi SW 4.6 mph - N/A   Unknown
8:30 AM 100.4 °F 106.3 °F 68.0 °F 35% 29.65 in 5.6 mi SW 3.5 mph - N/A   Unknown
9:00 AM 102 °F - 64 °F 20% 29.66 in 6 mi SW 5.8 mph - -   Widespread Dust
9:00 AM 102.2 °F 105.5 °F 64.4 °F 29% 29.65 in 5.6 mi SW 5.8 mph - N/A   Unknown
9:30 AM 104.0 °F 104.6 °F 59.0 °F 23% 29.65 in 5.6 mi SW 4.6 mph - N/A   Unknown
10:00 AM 105.8 °F 106.8 °F 59.0 °F 22% 29.65 in - Variable 3.5 mph - N/A   Clear
10:30 AM 104.0 °F 114.0 °F 71.6 °F 35% 29.65 in - ENE 6.9 mph - N/A   Clear
11:00 AM 102.2 °F 114.4 °F 73.4 °F 40% 29.62 in 5.6 mi ENE 11.5 mph - N/A   Unknown
11:30 AM 102.2 °F 114.4 °F 73.4 °F 40% 29.62 in 5.6 mi ENE 11.5 mph - N/A   Unknown
12:00 PM 102.2 °F 111.7 °F 71.6 °F 37% 29.62 in 5.6 mi East 11.5 mph - N/A   Unknown
12:30 PM 100.4 °F 111.9 °F 73.4 °F 42% 29.59 in 5.6 mi ESE 17.3 mph - N/A   Unknown
1:00 PM 100.4 °F 109.3 °F 71.6 °F 39% 29.59 in 5.6 mi East 15.0 mph - N/A   Unknown
1:30 PM 100.4 °F 116.5 °F 77.0 °F 47% 29.59 in - East 12.7 mph - N/A   Clear
2:00 PM 98.6 °F 114.4 °F 77.0 °F 50% 29.56 in - East 12.7 mph - N/A   Clear
2:30 PM 98.6 °F 114.4 °F 77.0 °F 50% 29.56 in - East 11.5 mph - N/A   Clear
3:00 PM 99 °F - 79 °F 44% 29.57 in 7 mi ESE 12.7 mph - -  
3:00 PM 98.6 °F 117.2 °F 78.8 °F 53% 29.56 in - ESE 12.7 mph - N/A   Clear
3:30 PM 98.6 °F 128.0 °F 84.2 °F 63% 29.56 in - East 11.5 mph - N/A   Clear
4:00 PM 96.8 °F 121.7 °F 82.4 °F 63% 29.56 in - East 11.5 mph - N/A   Clear
4:30 PM 96.8 °F 118.6 °F 80.6 °F 60% 29.56 in - East 11.5 mph - N/A   Clear
5:00 PM 95.0 °F 119.6 °F 82.4 °F 67% 29.56 in - ESE 10.4 mph - N/A   Clear
5:30 PM 95.0 °F 112.2 °F 78.8 °F 59% 29.56 in - East 10.4 mph - N/A   Clear
6:00 PM 95.0 °F 112.2 °F 78.8 °F 59% 29.56 in - East 9.2 mph - N/A   Clear
6:30 PM 95.0 °F 115.8 °F 80.6 °F 63% 29.56 in - East 8.1 mph - N/A   Clear
7:00 PM 95.0 °F 112.2 °F 78.8 °F 59% 29.56 in - ESE 6.9 mph - N/A   Clear
7:30 PM 95.0 °F 109.7 °F 77.0 °F 56% 29.59 in - ESE 5.8 mph - N/A   Clear
8:00 PM 95.0 °F 107.4 °F 75.2 °F 53% 29.59 in - SE 6.9 mph - N/A   Clear
8:30 PM 93.2 °F 107.2 °F 77.0 °F 59% 29.59 in - ESE 5.8 mph - N/A   Clear
9:00 PM 94 °F - 76 °F 48% 29.61 in 6 mi SE 5.8 mph - -   Scattered Clouds
9:00 PM 95.0 °F 109.7 °F 77.0 °F 56% 29.59 in - SE 5.8 mph - N/A   Clear
9:30 PM 95.0 °F 109.7 °F 77.0 °F 56% 29.59 in - SE 6.9 mph - N/A   Clear
10:00 PM 93.2 °F 107.2 °F 77.0 °F 59% 29.59 in - East 3.5 mph - N/A   Clear
10:30 PM 93.2 °F 110.2 °F 78.8 °F 63% 29.59 in - Calm Calm - N/A   Clear
11:00 PM 93.2 °F 113.6 °F 80.6 °F 67% 29.59 in - Variable 2.3 mph - N/A   Clear
11:30 PM 91.4 °F 111.0 °F 80.6 °F 71% 29.59 in - Variable 2.3 mph - N/A   Clear